Terug naar catalogus

STARLINK-34101

ActiefCommunicatieVLEO
NORAD 63812·PAYLOAD·🇺🇸 United States

Gelanceerd May 4, 2025 vanaf Cape Canaveral Space Force Station

Loading…

Volgende Passages (komende 24 uur)

TLE

VersSource: CelesTrak SupGP

Epoch: Sep 15, 2026, 03:28 UTC

1 63812C 25092J   26258.14493056 -.00015332  00000+0 -55547-3 0  2585
2 63812  42.9998 182.2094 0001204 275.9240  93.0416 15.27578445    17

Volg STARLINK-34101 in realtime met AllMySat

Download on the App Store